ROMMA est une association bénévole à but non lucratif. Votre soutien est indispensable : ADHERER à ROMMA ou FAIRE un DON

La Javie - (04, Alpes de Haute Provence)

Vallée de la Bléone (820 m)   Longitude: 06° 21' E   Latitude: 44° 10' N Station partenaire n°129
 

Détail journalier du     <<     >>

Température Precipitation Humidité Pression Vent Dir Rafale Dir. rafale Ensol.
Heure (°C) (mm) (%) (hPa) (km/h) (km/h) (min)
01:00 10.7091102800---0
02:00 9.8095102800---0
03:00 9.1096102800---0
04:00 8.8097102800---0
05:00 8.1098102800---0
06:00 7.7099102800---0
07:00 7.8099102800---0
08:00 8.60100102700---0
09:00 11.4099102600---0
10:00 17.0069102502---0
11:00 19.1062102406---0
12:00 19.706110243---14---0
13:00 20.706310236---16---0
14:00 20.706310236---19---0
15:00 21.805510228---21---0
16:00 22.205610219---24---0
17:00 20.805710216---18---0
18:00 20.405810204---18---0
19:00 20.805110204---16---0
20:00 19.605310203---19---0
21:00 18.0057102105---0
22:00 15.8071102103---0
23:00 14.4079102100---0
minuit 12.8086102100---0

Graphique du 28-05-2020

 

Serveur OMMA